CW1880 Weather Reports


time (UTC)temp
F
wind
direction
speed
knots
gust
knots
rain 1hr
in
rain 24hr
in
rain mn
in
humidity
%
barometer
mb
20260503053616 56 111 0.9 2.6 0.00 0.07 0.05 91 1009.2
20260503052616 56 144 0.0 2.6 0.00 0.07 0.05 91 1009.3
20260503051616 56 133 0.9 2.6 0.00 0.07 0.05 91 1009.3
20260503050615 56 96 0.9 1.7 0.00 0.07 0.05 90 1009.3
20260503045606 56 96 0.0 1.7 0.01 0.06 0.05 90 1009.4
20260503044607 56 96 0.0 0.9 0.02 0.06 0.05 90 1009.3
20260503043606 56 96 0.0 2.6 0.02 0.06 0.05 90 1009.3
20260503042606 56 96 0.9 2.6 0.02 0.06 0.05 90 1009.3
20260503041607 56 97 0.9 2.6 0.02 0.06 0.05 90 1009.4
20260503040603 56 79 0.9 2.6 0.02 0.06 0.05 90 1009.4
20260503035602 56 51 0.9 1.7 0.02 0.05 0.04 90 1009.7
20260503034602 56 49 0.9 0.9 0.01 0.05 0.03 89 1009.8
20260503031602 56 314 0.0 1.7 0.00 0.05 0.02 89 1010.4
20260503025602 56 314 1.7 1.7 0.00 0.05 0.02 89 1010.3
20260503024602 57 157 0.0 0.9 0.00 0.05 0.02 89 1010.4
20260503023601 57 157 0.0 1.7 0.00 0.05 0.02 89 1010.2
20260503021600 57 157 1.7 2.6 0.00 0.05 0.02 89 1010.5
20260503020603 57 157 0.0 0.9 0.00 0.05 0.02 89 1010.6
20260503014559 57 154 0.9 2.6 0.00 0.05 0.02 89 1010.5
20260503013601 57 152 0.0 3.5 0.00 0.05 0.02 89 1010.7
20260503012559 57 104 0.0 1.7 0.00 0.05 0.02 89 1010.6
20260503010559 57 104 0.9 2.6 0.00 0.05 0.02 89 1010.5
20260503004558 56 116 0.0 3.5 0.00 0.05 0.02 88 1010.7
20260503003558 56 78 0.0 2.6 0.00 0.05 0.02 88 1010.7
20260503001559 56 92 0.9 3.5 0.01 0.05 0.02 87 1010.9
20260502235538 56 92 1.7 4.3 0.01 0.04 0.02 87 1011.0
20260502234525 57 114 0.9 6.1 0.02 0.04 0.02 87 1011.2
20260502233521 57 121 2.6 9.6 0.02 0.04 0.02 87 1011.3
20260502232520 57 159 1.7 9.6 0.02 0.04 0.02 87 1011.4
20260502231517 57 109 2.6 7.8 0.02 0.04 0.02 87 1011.6
20260502230512 57 125 2.6 10.4 0.02 0.04 0.02 87 1011.7
20260502224506 57 75 2.6 12.2 0.01 0.02 0.01 85 1012.0
20260502223504 57 106 4.3 8.7 0.01 0.02 0.01 84 1012.6
20260502222508 57 155 5.2 13.9 0.01 0.02 0.01 83 1013.0
20260502220454 56 78 1.7 5.2 0.00 0.02 0.00 81 1012.1
20260502215454 56 68 2.6 5.2 0.00 0.02 0.02 81 1012.1
20260502214454 56 72 3.5 6.1 0.00 0.02 0.02 81 1012.1
20260502213454 56 69 1.7 6.1 0.00 0.02 0.02 82 1012.2
20260502212455 56 72 2.6 5.2 0.00 0.02 0.02 81 1012.3
20260502211452 56 62 1.7 3.5 0.00 0.02 0.02 81 1012.4
20260502210452 56 58 2.6 5.2 0.00 0.02 0.02 81 1012.6
20260502205450 56 54 0.9 4.3 0.00 0.02 0.02 81 1012.8
20260502204450 56 63 0.9 3.5 0.00 0.02 0.02 81 1012.8
20260502203453 56 59 1.7 4.3 0.00 0.02 0.02 81 1013.0
20260502202454 57 63 2.6 6.1 0.00 0.02 0.02 81 1013.1
20260502201450 57 65 0.9 3.5 0.00 0.02 0.02 81 1013.2
20260502200446 57 38 1.7 5.2 0.00 0.02 0.02 82 1013.3
20260502195436 57 66 2.6 4.3 0.00 0.02 0.02 81 1013.4
20260502194438 57 63 1.7 2.6 0.00 0.02 0.02 81 1013.4
20260502193435 57 31 2.6 4.3 0.00 0.02 0.02 81 1013.4
20260502192434 58 49 2.6 4.3 0.00 0.02 0.02 80 1013.4
20260502191430 58 10 1.7 2.6 0.00 0.02 0.02 79 1013.5
20260502190433 59 0 0.9 2.6 0.00 0.02 0.02 78 1013.5
20260502185430 59 353 2.6 3.5 0.00 0.02 0.02 78 1013.7
20260502184424 59 0 1.7 2.6 0.00 0.02 0.02 77 1013.6
20260502183424 60 38 1.7 4.3 0.00 0.02 0.02 76 1013.7
20260502170405 62 0 0.9 5.2 0.00 0.02 0.02 71 1014.2
20260502163351 62 320 3.5 6.1 0.00 0.02 0.02 70 1014.7
20260502162346 62 317 5.2 7.8 0.00 0.02 0.02 69 1014.8
20260502152340 64 299 3.5 7.8 0.00 0.02 0.02 62 1015.2
20260502151339 65 231 3.5 7.8 0.00 0.02 0.02 59 1015.3
20260502150334 66 248 5.2 8.7 0.00 0.02 0.02 58 1015.5
20260502122242 70 262 4.3 9.6 0.00 0.02 0.02 62 1016.5
20260502121237 71 244 7.0 11.3 0.00 0.02 0.02 62 1016.5
20260502120233 71 238 6.1 10.4 0.00 0.02 0.02 62 1016.6
20260502115236 71 248 6.1 13.0 0.00 0.02 0.02 64 1016.6
20260502114230 70 209 9.6 13.0 0.00 0.02 0.02 63 1016.6
20260502113231 72 257 3.5 9.6 0.00 0.02 0.02 62 1016.6
20260502112233 71 241 6.1 10.4 0.00 0.02 0.02 63 1016.5
20260502111234 71 285 4.3 11.3 0.00 0.02 0.02 62 1016.6
20260502110234 71 286 5.2 11.3 0.00 0.02 0.02 64 1016.7
20260502105234 70 268 3.5 13.0 0.00 0.02 0.02 67 1016.7
20260502104231 69 228 7.8 12.2 0.00 0.02 0.02 68 1016.8
20260502103232 67 224 4.3 10.4 0.00 0.02 0.02 73 1016.9
20260502102232 67 234 7.8 10.4 0.00 0.02 0.02 73 1016.9
20260502101235 67 241 6.1 12.2 0.00 0.02 0.02 73 1016.8
20260502100233 67 257 4.3 9.6 0.00 0.02 0.02 76 1016.7
20260502091218 63 292 0.9 7.8 0.01 0.02 0.02 86 1016.7
20260502071156 60 264 4.3 8.7 0.00 0.00 0.00 78 1016.9
20260502070153 60 240 3.5 6.1 0.00 0.00 0.00 77 1016.8
20260502065156 60 233 1.7 6.1 0.00 0.00 0.00 77 1016.7
20260502064150 59 238 3.5 5.2 0.00 0.00 0.00 76 1016.8
20260502063150 59 164 3.5 4.3 0.00 0.00 0.00 75 1016.8
20260502062147 58 231 0.9 4.3 0.00 0.00 0.00 74 1016.8
20260502061143 57 237 4.3 6.1 0.00 0.00 0.00 73 1016.7
20260502055137 55 245 2.6 6.1 0.00 0.00 0.00 71 1016.6
20260502054138 55 214 1.7 4.3 0.00 0.00 0.00 68 1016.7